Location: Pinhey's Point
(45.4411°N, 75.9539°W)
Time: 13:07:27
(UTC-04:00)

Daily predictions for brighter satellites

Satellite Brightness Start Highest point End
(mag) Time Altitude Azimuth Time Altitude Azimuth Time Altitude Azimuth
Cosmos 1633 Rocket 3.3 20:21:13 10° N 20:25:29 52° ENE 20:29:43 10° SSE
Genesis I 3.7 20:21:31 10° NNW 20:25:31 49° NE 20:29:27 10° SE
Cosmos 2221 4.0 20:31:00 10° SSW 20:35:02 42° WNW 20:39:07 10° N
OE (NEXTSAT) 4.4 20:33:25 10° WSW 20:36:59 71° SSE 20:40:32 10° E
NOSS 2-1 (C) 3.2 20:34:13 10° SW 20:37:50 90° SE 20:41:56 10° NE
BREEZE-M DEB (TANK) 2.6 20:32:36 10° WNW 20:38:14 84° SSW 20:40:37 11° ESE
NOSS 2-1 (D) 3.2 20:35:11 10° SW 20:38:49 87° NW 20:42:56 10° NE
Cosmos 1515 Rocket 4.4 20:35:03 10° SSE 20:38:58 31° E 20:42:53 10° NNE
Cosmos 1340 2.8 20:36:23 10° SSW 20:40:10 81° W 20:44:00 10° N
Thor Agena Rocket 3.6 20:35:34 10° NNE 20:40:48 70° ESE 20:46:04 10° S
Cosmos 2228 Rocket 3.8 20:39:44 10° SSE 20:43:40 33° E 20:47:38 10° NNE
Lacrosse 5 3.9 20:40:22 10° NW 20:44:17 22° N 20:48:13 10° NE
ATLAS 2AS CENTAUR R/B 3.0 20:36:32 10° NW 20:44:34 84° NE 20:51:57 10° SE
Cosmos 1825 3.0 20:48:29 10° N 20:51:57 32° ENE 20:54:53 13° SE
Spot 2 Rocket 3.5 20:50:19 10° SSE 20:55:22 69° ENE 21:00:27 10° N
Cosmos 1328 Rocket 3.5 20:53:18 10° S 20:57:40 70° E 21:02:07 10° NNE
Cosmos 2154 Rocket 4.2 20:53:06 10° SSW 20:59:21 77° W 21:05:37 10° N
ATLAS CENTAUR R/B 1.1 20:56:16 10° SSW 20:59:52 61° ESE 21:03:41 10° NE
SL-8 R/B 4.2 20:55:30 10° SSW 20:59:57 39° SE 21:04:25 10° ENE
SL-16 R/B 3.4 21:01:33 12° SE 21:05:11 21° E 21:09:16 10° NE
Resurs 01 Rocket 1.9 21:03:47 10° S 21:08:12 69° WSW 21:12:39 10° NNW
Cosmos 1470 Rocket 3.5 21:04:13 10° N 21:08:38 79° E 21:13:04 10° SSE
NOSS 2-1 (E) 4.2 21:05:42 10° WSW 21:09:18 51° NW 21:13:30 10° NNE
ARGOS 3.7 21:06:46 15° SE 21:10:45 42° ENE 21:15:47 10° N
Meteor 2-3 Rocket 4.0 21:06:53 10° NNW 21:12:29 72° W 21:18:05 10° S
BREEZE-M DEB (TANK) 3.4 21:05:59 10° W 21:14:04 54° NNW 21:16:52 10° ENE
NOSS 3-4 (A) 4.2 21:08:08 10° NNW 21:14:54 53° NE 21:20:26 18° ESE
NOSS 3-4 (C) 4.2 21:08:14 10° NNW 21:15:00 52° NE 21:20:32 18° ESE
CZ-4B DEB 4.5 21:15:51 19° SSE 21:18:14 67° ENE 21:21:44 10° N
Cosmos 1939 Rocket 4.0 21:15:08 10° S 21:18:48 41° W 21:22:32 10° NNW
SL-08 RB Rocket 4.4 21:18:26 21° ESE 21:20:46 35° ENE 21:24:51 10° N
Cosmos 2341 Rocket 4.2 21:16:22 10° SSW 21:22:42 76° W 21:29:03 10° N
Cosmos 1869 3.5 21:19:47 14° SSE 21:23:04 50° E 21:26:59 10° NNE
NOSS 3-3 (A) 4.2 21:17:24 10° SW 21:23:30 76° NW 21:30:15 10° NE
NOSS 3-3 (C) 4.2 21:17:30 10° SW 21:23:36 76° NW 21:30:22 10° NE
NOSS 0 Rocket 3.9 21:18:18 10° SSW 21:24:28 83° ESE 21:30:43 10° NNE
Meteor 2-10 Rocket 4.0 21:20:51 11° SSE 21:26:09 47° E 21:31:43 10° NNE
Cosmos 2218 Rocket 4.0 21:21:10 10° S 21:27:27 68° E 21:33:50 10° NNE
USA 267 4.1 21:23:04 10° ENE 21:28:07 23° SE 21:33:06 10° S
USA 81 4.5 21:24:30 10° N 21:29:34 44° E 21:32:21 24° SE
Cosmos 1980 3.6 21:25:27 10° SSW 21:31:08 85° ESE 21:36:52 10° NNE
Cosmos 407 Rocket 3.7 21:26:34 10° NNW 21:31:35 53° ENE 21:34:17 26° SE
ERS-1 Rocket 3.4 21:30:08 24° SE 21:32:45 44° ENE 21:37:31 10° N
Cosmos 2297 4.0 21:28:47 10° NNW 21:34:21 52° ENE 21:37:25 26° SE
Cosmos 1408 3.0 21:31:49 10° NNW 21:35:27 63° W 21:38:11 17° S
Cosmos 1933 Rocket 4.0 21:32:52 10° NNW 21:37:13 62° W 21:41:04 13° S
Cosmos 2366 rocket 3.9 21:32:45 10° S 21:38:56 75° E 21:45:15 10° NNE
H-2A R/B 2.1 21:36:33 26° SE 21:39:13 55° ENE 21:44:05 10° N
Cosmos 2369 Rocket 4.1 21:36:49 10° N 21:40:29 17° NE 21:43:31 12° ENE
Cosmos 2333 Rocket 3.0 21:36:34 10° SW 21:42:06 53° WNW 21:47:39 10° NNE
Cosmos 1151 Rocket 3.6 21:38:44 10° SSW 21:42:55 58° W 21:47:10 10° N
Cosmos 1371 Rocket 3.9 21:37:50 10° SSW 21:43:07 72° ESE 21:48:29 10° NNE
Cosmos 1455 4.2 21:40:03 10° SW 21:43:27 30° WNW 21:46:54 10° NNW
Cosmos 1441 Rocket 3.7 21:45:32 37° E 21:45:35 37° E 21:49:04 10° NNE
SL-8 Rocket 4.2 21:41:49 10° SSW 21:48:06 73° W 21:54:24 10° N
Helios 1B rocket 3.9 21:46:22 10° NE 21:48:47 21° ENE 21:48:47 21° ENE
Cosmos 676 Rocket 4.3 21:46:34 10° NNW 21:51:42 50° ENE 21:53:37 34° ESE
Cosmos 1707 Rocket 4.0 21:52:59 37° ESE 21:53:19 37° E 21:57:19 10° NNE
Cosmos 1339 Rocket 4.4 21:47:16 10° N 21:53:23 87° W 21:57:44 21° S
MetOp-A 4.1 21:51:21 24° SSE 21:54:40 85° WSW 22:00:04 10° NNW
Cosmos 2219 Rocket 3.8 21:51:34 10° WSW 21:56:47 37° NW 22:02:00 10° NNE
CZ-4C R/B 4.0 21:59:36 15° ENE 21:59:36 15° ENE 22:01:01 10° ENE
Cosmos 2237 Rocket 2.6 21:52:58 10° SW 21:58:33 66° WNW 22:04:11 10° NNE
Cosmos 1869 Rocket 3.4 21:55:17 10° N 21:59:41 72° E 22:00:53 46° SSE
USA 234 4.3 21:58:18 12° E 22:03:45 40° NNE 22:09:44 10° NW
Cosmos 2056 Rocket 3.5 21:59:12 10° SSW 22:04:37 87° ESE 22:10:03 10° NNE
Cosmos 1452 Rocket 4.1 22:05:38 36° ESE 22:05:38 36° ESE 22:10:24 10° NE
Cosmos 2278 Rocket 3.3 22:00:42 10° NW 22:05:54 38° WSW 22:09:51 16° SSW
Cosmos 1862 3.2 22:04:56 10° N 22:09:00 88° E 22:09:45 59° SSE
ATLAS 5 CENTAUR R/B 3.8 22:04:25 10° NNW 22:09:14 27° NE 22:12:37 17° ENE
Helios 1A 2.9 22:08:42 56° SE 22:09:27 70° ENE 22:13:38 10° N
Terra 2.8 22:09:24 30° E 22:10:00 31° ENE 22:14:10 10° N
Cosmos 1733 Rocket 4.2 22:07:08 10° NNE 22:10:52 29° ENE 22:10:52 29° ENE
Cosmos 2098 Rocket 3.6 22:07:13 12° SSW 22:11:30 53° W 22:15:10 10° N
Cosmos 1437 Rocket 4.0 22:10:48 10° N 22:13:44 29° ENE 22:13:44 29° ENE
OE (NEXTSAT) 4.4 22:11:16 10° W 22:14:49 80° N 22:14:49 80° N
Cosmos 405 Rocket 2.5 22:15:05 76° SSE 22:15:18 81° E 22:19:15 10° NNE
Cosmos 405 3.7 22:13:32 10° NNW 22:16:55 46° W 22:17:29 41° SW
Cosmos 1624 Rocket 4.3 22:16:30 10° SSW 22:21:39 65° WNW 22:26:51 10° NNE
Cosmos 1190 Rocket 4.5 22:17:45 10° NNW 22:22:56 56° WSW 22:24:55 35° SSW
Cosmos 1140 Rocket 3.4 22:20:52 10° NNW 22:26:05 82° ENE 22:27:07 58° SE
Lacrosse 5 3.1 22:23:53 10° NW 22:28:31 34° NNE 22:30:32 25° ENE
SPOT 5 2.6 22:28:34 66° SSE 22:29:13 90° E 22:33:42 10° NNW
Cosmos 1934 Rocket 4.1 22:33:03 47° ESE 22:33:50 50° E 22:39:38 10° NNE
IGS 5A 3.8 22:35:30 52° NE 22:35:30 52° NE 22:39:13 10° N
Cosmos 1954 Rocket 3.9 22:30:38 10° NNW 22:35:53 82° WSW 22:36:48 61° S
ATLAS CENTAUR R/B 4.1 22:36:36 10° W 22:39:15 18° NW 22:41:59 10° N
GEOS 3 Rocket 3.5 22:34:27 10° NE 22:39:52 85° SE 22:43:44 19° SW
SL-24 R/B 4.5 22:40:16 63° SE 22:41:05 77° E 22:46:11 10° N
Cosmos 1633 4.3 22:38:08 10° N 22:40:03 25° NNE 22:40:03 25° NNE
SL-8 R/B 3.7 22:37:30 10° WSW 22:42:18 77° NNW 22:43:32 50° ENE
Meteor 1-4 Rocket 4.4 22:43:57 10° N 22:45:41 24° NNE 22:45:41 24° NNE
SL-16 R/B 2.6 22:43:11 10° SW 22:48:46 63° WNW 22:54:24 10° NNE
CZ-2C R/B 3.4 22:49:11 43° ENE 22:49:11 43° ENE 22:53:30 10° N
Cosmos 2344 3.5 22:45:17 10° SSW 22:52:51 76° SE 23:01:19 10° NE
Cosmos 1943 Rocket 3.0 22:48:54 10° NNW 22:53:58 36° NE 22:54:37 35° ENE
Cosmos 1933 3.9 22:54:28 56° WNW 22:54:28 56° WNW 22:58:19 10° N
SL-19 R/B 4.4 22:53:15 55° SSW 22:54:21 70° WSW 22:59:57 10° NNW
Cosmos 1821 Rocket 4.1 22:57:38 44° SSW 22:59:48 77° W 23:06:08 10° N
H-2A R/B 4.4 23:08:17 15° NE 23:08:17 15° NE 23:10:21 10° NNE
Cosmos 1420 Rocket 4.0 23:08:01 74° WSW 23:08:25 80° WNW 23:13:47 10° NNE
Cosmos 1862 Rocket 4.2 23:10:35 50° NNE 23:10:35 50° NNE 23:13:53 10° N
SPOT 1/Viking Rocket 4.3 23:09:39 40° WSW 23:10:27 43° W 23:15:27 10° NNW
USA 267 3.1 23:05:10 10° NE 23:11:45 81° SE 23:18:18 10° SW
Meteor 1-14 Rocket 4.0 23:08:19 10° NNW 23:13:52 85° W 23:14:00 83° SW
Cosmos 2123 Rocket 3.9 23:08:39 10° N 23:15:00 82° W 23:15:50 68° SSW
Cosmos 1603 3.7 23:16:16 68° ENE 23:16:16 68° ENE 23:21:18 10° NNE
H-2A R/B 4.0 23:17:10 16° WSW 23:18:57 19° W 23:22:32 10° NW
Cosmos 1943 4.1 23:21:19 36° ENE 23:21:19 36° ENE 23:24:57 10° NE
Cosmos 921 Rocket 4.4 23:25:01 34° NNE 23:25:01 34° NNE 23:27:30 10° NNE
Helios 1B rocket 3.9 23:21:19 10° N 23:25:01 33° WNW 23:25:09 33° WNW
Cosmos 2369 Rocket 2.1 23:19:44 10° NNW 23:25:18 80° NE 23:25:18 80° NE
Cosmos 2263 4.4 23:20:40 10° NNW 23:26:03 61° NE 23:26:03 61° NE
CZ-2C R/B 3.0 23:35:08 10° NNE 23:39:33 59° NE 23:39:33 59° NE
CZ-4C R/B 2.3 23:44:41 69° NW 23:44:42 69° NW 23:50:48 10° NE
USA 234 3.1 23:45:38 73° ESE 23:46:19 83° NE 23:52:54 10° NW
Terra 3.2 23:48:17 31° W 23:48:17 31° W 23:51:59 10° NNW
RESURS DK-1 4.1 23:43:58 10° NNW 23:46:14 31° NNW 23:46:14 31° NNW
Cosmos 1605 Rocket 4.2 23:49:31 62° WSW 23:50:08 65° W 23:56:31 10° N
